Accueil
METAR-TAF:

METAR-TAF

Aéroports :

Fairford, Angleterre

latitude: 51-41N, longitude: 001-47W, altitude: 87 m

Observation

Le bulletin a été fait il y a 50 minutes, à 00:58 UTC
Vent 12 kt de ouest/sud-ouest avec des rafales jusqu'à 19 kt
Température 16°C
Humidité 88%
Pression 1015 hPa
Visibilité 10 km ou plus
Ciel couvert à une hauteur de 1300 ft

METAR: EGVA 240058Z AUTO 24012G19KT 9999 OVC013 16/14 A2996 RMK AO2 SLP147 T01630136 $

Heure: 02:48 (01:48 UTC)


TAF: absent

Observations et prévisions météorologiques de plus de 4000 aéroports (messages METAR et TAF).

Les stations disponibles sont représentées par des disques jaunes et rouges sur la carte.

Passer la souris dessus pour voir le nom de la station.

Cliquer dessus pour voir les observations et prévisions météorologiques.

Pour changer de carte: cliquez sur les boutons verts avec une croix noire pour zoomer, sur le bouton vert avec un tiret pour effectuer un zoom arrière, ou sur les flèches vertes pour les cartes adjacentes.


METAR-TAF: